Voltar ao catálogo

ARIANE 44L DEB

AtivoHEO
NORAD 24724·DEBRIS·🇫🇷 France

Lançado Jan 15, 1991 de Guiana Space Centre

Loading…

Próximas Passagens (próximas 24 horas)

TLE

AtualizadoSource: Space-Track

Época: Sep 14, 2026, 05:20 UTC

1 24724U 91003G   26257.22267805  .00000455  00000-0  16415-2 0  9999
2 24724   5.6730 281.3607 6739523   8.8627 358.8123  2.85924530307216

Acompanhe ARIANE 44L DEB em tempo real com AllMySat

Download on the App Store